Powrót do katalogu

STARLINK-34948

AktywnyŁącznośćSSO
NORAD 65191·PAYLOAD·🇺🇸 United States

Wystrzelony Aug 14, 2025 z Vandenberg Space Force Base

Loading…

Następne Przeloty (najbliższe 24 godziny)

TLE

ŚwieżeSource: CelesTrak SupGP

Epoka: Sep 15, 2026, 02:42 UTC

1 65191C 25175T   26258.11298611  .00042973  00000+0  13335-2 0  2583
2 65191  97.2844 127.2104 0001796  93.1501 139.8350 15.33429150    10

Śledź STARLINK-34948 w czasie rzeczywistym z AllMySat

Download on the App Store